Voltar ao catálogo

STARLINK-5721

AtivoComunicaçõesVLEO
NORAD 55617·PAYLOAD·🇺🇸 United States

Lançado Feb 12, 2023 de Cape Canaveral Space Force Station

Loading…

Próximas Passagens (próximas 24 horas)

TLE

AtualizadoSource: CelesTrak SupGP

Época: Sep 15, 2026, 03:00 UTC

1 55617C 23020BA  26258.12548611  .00012935  00000+0  46854-3 0  2589
2 55617  43.0015   4.1307 0001407 260.2137 119.4250 15.27569786    16

Acompanhe STARLINK-5721 em tempo real com AllMySat

Download on the App Store